Location: Gleizolles
(44.4833°N, 6.7667°E)
Time: 14:38:22
(UTC+00:00)

deb Explorer IX - Pass Details

Date: 28 June 2024
Orbit: 510 x 878 km, 38.7° (Epoch: 21 July)

Event Time Altitude Azimuth Distance (km) Brightness Sun altitude
Rises 07:27:33 0° 256° (WSW) 2,678 ? 35.6°
Reaches altitude 10° 07:29:48 10° 249° (WSW) 1,826 ? 36.0°
Maximum altitude 07:33:42 39° 179° (S) 878 ? 36.7°
Drops below altitude 10° 07:38:01 10° 111° (ESE) 2,012 ? 37.5°
Sets 07:40:36 0° 104° (ESE) 2,992 ? 37.9°
